Falls City, NE

1:46 PM CDT on September 26, 2017 (GMT -0500)
Brenner

Weather History for KFNB - November, 2011

Change the Weather History Date:

Tuesday, November 22, 2011

  Actual Average Record
Temperature  
Mean Temperature 40 °F -  
Max Temperature 42 °F 51 °F 75 °F (1966)
Min Temperature 35 °F 28 °F 12 °F (1964)
Degree Days  
Heating Degree Days 26    
Moisture  
Dew Point 39 °F    
Average Humidity 96    
Maximum Humidity 100    
Minimum Humidity 87    
Precipitation  
Precipitation 0.10 in - - ()
Sea Level Pressure  
Sea Level Pressure 30.07 in    
Wind  
Wind Speed 5 mph (NW)    
Max Wind Speed 9 mph    
Max Gust Speed -    
Visibility 5 miles    
Events Rain    
Averages and records for this station are not official NWS values.
T = Trace of Precipitation, MM = Missing Value Source: NWS Daily Summary

Daily Weather History Graph

Daily Weather History Graph

Search for Another Location

Airport or City:

Trip Planner

Search our weather history database for the weather conditions in past years. The results will help you decide how hot, cold, wet, or windy it might be!

Date:

Astronomy

Nov. 22, 2011 Rise Set
Actual Time 7:15 AM CST 5:01 PM CST
Civil Twilight 6:45 AM CST 5:30 PM CST
Nautical Twilight 6:12 AM CST 6:03 PM CST
Astronomical Twilight 5:40 AM CST 6:36 PM CST
Moon 4:07 AM CST (11/22) 3:01 PM CST (11/22)
Length of Visible Light 10h 44m
Length of Day
9h 45m
Waning Crescent, 9% of the Moon is Illuminated
Nov 22
Waning Crescent
Nov 25
New
Dec 2
First Quarter
Dec 10
Full
Dec 17
Last Quarter

Hourly Weather History & Observations

Time (CST) Temp. Windchill Dew Point Humidity Pressure Visibility Wind Dir Wind Speed Gust Speed Precip Events Conditions
12:24 AM 39.2 °F - 37.4 °F 93% 30.10 in 8.0 mi Calm Calm - N/A   Overcast
12:53 AM 39.9 °F 36.7 °F 37.9 °F 93% 30.10 in 5.0 mi NNW 4.6 mph - 0.00 in Rain Light Rain
1:34 AM 39.2 °F 35.9 °F 39.2 °F 100% 30.05 in 2.5 mi NNW 4.6 mph - 0.00 in   Overcast
1:53 AM 39.0 °F 35.7 °F 39.0 °F 100% 30.06 in 2.5 mi North 4.6 mph - 0.00 in   Overcast
2:02 AM 39.2 °F 37.0 °F 39.2 °F 100% 30.04 in 3.0 mi North 3.5 mph - N/A   Overcast
2:41 AM 39.2 °F 37.0 °F 39.2 °F 100% 30.05 in 2.5 mi NNW 3.5 mph - 0.00 in Rain Light Rain
2:53 AM 39.0 °F 36.8 °F 39.0 °F 100% 30.07 in 2.5 mi NNW 3.5 mph - 0.01 in Rain Light Rain
3:53 AM 37.9 °F 35.5 °F 37.9 °F 100% 30.05 in 2.5 mi NNW 3.5 mph - 0.03 in Rain Light Rain
4:53 AM 37.9 °F 34.4 °F 37.9 °F 100% 30.06 in 2.5 mi NNW 4.6 mph - 0.03 in Rain Light Rain
5:37 AM 37.4 °F 33.8 °F 37.4 °F 100% 30.03 in 3.0 mi North 4.6 mph - 0.02 in Rain Light Rain
5:53 AM 37.9 °F 34.4 °F 37.9 °F 100% 30.04 in 3.0 mi North 4.6 mph - 0.02 in Rain Light Rain
6:53 AM 39.0 °F 34.8 °F 39.0 °F 100% 30.05 in 4.0 mi NNW 5.8 mph - 0.01 in Rain Light Rain
7:53 AM 39.0 °F 34.8 °F 39.0 °F 100% 30.05 in 2.5 mi NNW 5.8 mph - 0.00 in   Overcast
8:07 AM 39.2 °F 33.6 °F 39.2 °F 100% 30.04 in 3.0 mi NNW 8.1 mph - N/A   Overcast
8:53 AM 39.9 °F 33.9 °F 39.0 °F 97% 30.06 in 4.0 mi NNW 9.2 mph - N/A   Overcast
9:34 AM 39.2 °F 33.6 °F 39.2 °F 100% 30.05 in 2.5 mi NNW 8.1 mph - N/A   Overcast
9:53 AM 39.2 °F 33.0 °F 39.2 °F 100% 30.06 in 2.0 mi NNW 9.2 mph - N/A   Overcast
10:08 AM 39.2 °F 33.6 °F 39.2 °F 100% 30.06 in 1.5 mi NW 8.1 mph - N/A   Overcast
10:39 AM 41.0 °F 35.8 °F 39.2 °F 93% 30.04 in 2.0 mi NNW 8.1 mph - N/A   Overcast
10:53 AM 41.0 °F 35.8 °F 41.0 °F 100% 30.06 in 2.5 mi North 8.1 mph - N/A   Overcast
11:08 AM 42.8 °F 38.6 °F 41.0 °F 93% 30.04 in 3.0 mi NW 6.9 mph - N/A   Overcast
11:53 AM 42.1 °F 37.7 °F 41.0 °F 96% 30.05 in 4.0 mi WNW 6.9 mph - N/A   Overcast
12:53 PM 42.1 °F 38.4 °F 39.9 °F 92% 30.04 in 4.0 mi WNW 5.8 mph - N/A   Overcast
1:45 PM 42.8 °F 38.6 °F 39.2 °F 87% 30.04 in 2.5 mi NW 6.9 mph - N/A   Overcast
1:53 PM 42.1 °F 37.1 °F 41.0 °F 96% 30.06 in 3.0 mi WNW 8.1 mph - N/A   Overcast
2:53 PM 42.1 °F 38.4 °F 39.9 °F 92% 30.05 in 3.0 mi NW 5.8 mph - N/A   Overcast
3:53 PM 42.1 °F 36.6 °F 39.0 °F 89% 30.07 in 6.0 mi West 9.2 mph - N/A   Overcast
4:53 PM 41.0 °F 35.8 °F 37.4 °F 87% 30.07 in 6.0 mi WNW 8.1 mph - N/A   Overcast
5:53 PM 41.0 °F 38.0 °F 37.9 °F 89% 30.09 in 7.0 mi WNW 4.6 mph - N/A   Overcast
6:53 PM 41.0 °F 38.0 °F 37.4 °F 87% 30.10 in 8.0 mi West 4.6 mph - N/A   Overcast
7:53 PM 39.9 °F - 37.9 °F 93% 30.12 in 9.0 mi Calm Calm - N/A   Overcast
8:53 PM 39.9 °F 37.8 °F 37.9 °F 93% 30.14 in 10.0 mi WSW 3.5 mph - N/A   Overcast
9:08 PM 39.2 °F 37.0 °F 37.4 °F 93% 30.14 in 10.0 mi WSW 3.5 mph - N/A   Overcast
9:53 PM 39.0 °F 36.8 °F 37.0 °F 93% 30.17 in 10.0 mi WSW 3.5 mph - N/A   Overcast
10:53 PM 37.0 °F - 36.0 °F 96% 30.18 in 10.0 mi Calm Calm - N/A   Mostly Cloudy
11:53 PM 35.1 °F 30.1 °F 35.1 °F 100% 30.19 in 8.0 mi SSW 5.8 mph - N/A   Overcast